sat.trackr.live / text

‹ back to catalog

STARLINK-5568

NORAD 55372 · 2023-013AT

PAYLOAD ACTIVE UNKNOWN

§ Identity

Operator
Country
US
Launch date
2023-01-26
Launch site
AFETR
Launch vehicle
Mass (kg)
RCS (m²)

Purposes: comms

External: N2YO · Heavens-Above · Gunter

§ Orbital elements

Epoch: 2026-05-24T16:39:16.678656Z

Period
94.27 min
Inclination
43.0036°
Eccentricity
0.0001313
Mean motion
15.27582505 rev/d
Perigee alt
482.1 km
Apogee alt
483.9 km
Semi-major
6,861.2 km
B*
1.2401e-5
RAAN
249.1708°
Arg perigee
262.3363°
Mean anomaly
97.7339°
Rev number
18,312

§ Raw data

STARLINK-55681 55372U 23013AT  26144.69394304  .00000079  00000+0  12401-4 0  99932 55372  43.0036 249.1708 0001313 262.3363  97.7339 15.27582505183127

JSON: /api/v1/satellites/55372 · /tle

For live sub-satellite position, see the globe view (requires WebGL).

§ Visibility from observer

Set your observer location to see the next 7 days of passes ≥ 10°. The values pass through the URL so the page stays shareable.

No JS? Fill the form by hand. The geolocation button needs JavaScript.